Location: Bukovany
(49.8234°N, 14.6297°E)
Time: 16:20:17
(UTC+00:00)

CZ-2D R/B - Pass Details

Date: 17 November 2025
Orbit: 525 x 597 km, 98.0° (Epoch: 12 December)

Event Time Altitude Azimuth Distance (km) Brightness Sun altitude
Rises 16:11:02 0° 133° (SE) 2,798 6.6 -9.0°
Reaches altitude 10° 16:13:25 10° 121° (ESE) 1,913 5.7 -9.4°
Maximum altitude 16:16:53 26° 64° (ENE) 1,178 4.4 -9.9°
Drops below altitude 10° 16:20:24 10° 7° (N) 1,947 5.9 -10.4°
Sets 16:22:51 0° 356° (N) 2,858 6.8 -10.8°
